Weather Roundup
Issued by NWS Chicago, IL

Home | Current Version | Previous Version | Text Only | Print | Product List | Glossary Off
Versions: 1 2 3 4 5 6 7 8 9 10 11 12 13 14 15 16 17 18 19 20 21 22 23 24 25 26 27 28 29 30 31 32 33 34 35 36 37 38 39 40 41 42 43 44 45 46 47 48 49 50

000
NZUS59 KLOT 250906
HRRLOT

CHICAGO AREA WEATHER ROUNDUP
NATIONAL WEATHER SERVICE CHICAGO/ROMEOVILLE IL
400 AM CDT FRI JUL 25 2014

NOTE: "FAIR" INDICATES FEW OR NO CLOUDS BELOW 12,000 FEET WITH NO
SIGNIFICANT WEATHER AND/OR OBSTRUCTIONS TO VISIBILITY.

* THESE STATIONS ARE NOT UNDER NWS QUALITY CONTROL. THEY ALSO MAY NOT
  REPORT WEATHER SUCH AS PRECIPITATION OR FOG.

ILZ005-006-012>014-019>023-251000-
NORTHEAST ILLINOIS

CITY           SKY/WX    TMP DP  RH WIND       PRES   REMARKS
OHARE          CLEAR     56  48  74 S5        30.04F
MIDWAY         PTCLDY    61  51  70 S6        30.04F
AURORA         CLEAR     52  47  83 CALM      30.06F
JOLIET*        CLEAR     52  51  94 CALM      30.08S
WAUKEGAN       PTCLDY    55  48  77 SW5       30.03F
DUPAGE AIRPORT CLEAR     53  50  89 SW3       30.05F
WHEELING       CLEAR     58  50  75 CALM      30.05F
KANKAKEE*      CLEAR     54  51  91 CALM      30.07F
MORRIS*        CLEAR     55  53  94 S3        30.05F
LEWIS AIRPORT* CLEAR     53  49  87 S5        30.07R
NORTHERLY IS   NOT AVBL
$$

WIZ051-052-058>065-066-070>072-251000-
SOUTHEAST WISCONSIN

CITY           SKY/WX    TMP DP  RH WIND       PRES   REMARKS
MILWAUKEE      PTCLDY    60  45  57 SW10      30.03F
KENOSHA*       PTCLDY    56  49  77 SW6       30.04F
RACINE*        PTCLDY    58  48  69 SW7       30.05F
BURLINGTON     CLEAR     49  47  92 SW5       30.05R
WAUKESHA       PTCLDY    55  45  67 S7        30.04R
WEST BEND      PTCLDY    55  45  67 SW3       30.01F
$$

INZ001>003-010>013-019-020-251000-
NORTHWEST INDIANA

CITY           SKY/WX    TMP DP  RH WIND       PRES   REMARKS
GARY*          CLEAR     54  52  92 CALM      30.07F
MICHIGAN CITY* NOT AVBL
RENSSELAER*    NOT AVBL
VALPARAISO     CLEAR     48  46  93 CALM      30.08F FOG
$$

LMZ740>746-251000-
SOUTHERN LAKE MICHIGAN

STATION/POSITION TIME  SKY/WX   TEMP WIND        PRES    VSBY
                                AIR  DIR/SP/G
                 (UTC)          (F)  (DEG/KT/KT) (MB)    (MI)
HARRISON CRIB    0900            64  180/  8/ 10   N/A
BURNHAM HARBOR   NOT AVBL
CALUMET HARBOR   0900            60  180/  3/  3 1016.5F
BURNS HARBOR     NOT AVBL
MICHIGAN CITY    0900            57  200/  4/  5   N/A
$$

ABBREVIATIONS USED IN REMARKS
   TC - TEMPERATURE IN CELSIUS
  WCI - WIND CHILL INDEX
   HX - HEAT INDEX
  VSB - VISIBILITY
$$


USA.gov is the U.S. government's official web portal to all federal, state and local government web resources and services.